Location: Betpouey
(42.8833°N, 0.0333°E)
Time: 21:16:27
(UTC+00:00)

ERS-2 - Pass Details

Date: 01 December 2020
Orbit: 492 x 498 km, 98.6° (Epoch: 19 January)

Event Time Altitude Azimuth Distance (km) Brightness Sun altitude
Exits shadow 18:11:20 14° 5° (N) 1,465 4.3 -18.7°
Maximum altitude 18:14:22 60° 287° (WNW) 575 2.6 -19.2°
Drops below altitude 10° 18:17:58 10° 207° (SSW) 1,695 5.3 -19.8°
Sets 18:20:02 0° 203° (SSW) 2,573 6.2 -20.2°
